TimeFJST,TemperatureF,Dew PointF,Humidity,Sea Level PressureIn,VisibilityMPH,Wind Direction,Wind SpeedMPH,Gust SpeedMPH,PrecipitationIn,Events,Conditions,WindDirDegrees,DateUTC
12:00 AM,77.0,75.2,94,29.89,24.9,Calm,Calm,-,N/A,,Mostly Cloudy,0,2012-12-31 11:00:00
1:00 AM,77,75,90,29.88,12,Calm,Calm,,,,Partly Cloudy,,2012-12-31 12:00:00
1:00 AM,77.0,75.2,94,29.86,24.9,Calm,Calm,-,N/A,,Mostly Cloudy,0,2012-12-31 12:00:00
2:00 AM,77.0,75.2,94,29.86,21.8,SE,3.5,-,N/A,,Mostly Cloudy,130,2012-12-31 13:00:00
3:00 AM,77.0,73.4,89,29.83,21.8,SSE,6.9,-,N/A,,Mostly Cloudy,160,2012-12-31 14:00:00
4:00 AM,76,74,91,29.83,12,Calm,Calm,,,,Partly Cloudy,,2012-12-31 15:00:00
4:00 AM,77.0,73.4,89,29.83,21.8,Calm,Calm,-,N/A,,Mostly Cloudy,0,2012-12-31 15:00:00
5:00 AM,77.0,75.2,94,29.80,21.8,Calm,Calm,-,N/A,,Mostly Cloudy,0,2012-12-31 16:00:00
6:00 AM,77.0,75.2,94,29.80,21.8,Calm,Calm,-,N/A,,Mostly Cloudy,0,2012-12-31 17:00:00
7:00 AM,76,74,94,29.84,12,Calm,Calm,,,,Partly Cloudy,,2012-12-31 18:00:00
7:00 AM,77.0,75.2,94,29.83,24.9,Calm,Calm,-,N/A,,Mostly Cloudy,0,2012-12-31 18:00:00
8:00 AM,77.0,73.4,89,29.86,31.1,WSW,2.3,-,N/A,,Mostly Cloudy,240,2012-12-31 19:00:00
9:00 AM,82.4,73.4,74,29.86,31.1,Calm,Calm,-,N/A,,Mostly Cloudy,0,2012-12-31 20:00:00
10:00 AM,84,73,62,29.87,31,South,6.9,,,,Partly Cloudy,170,2012-12-31 21:00:00
10:00 AM,84.2,73.4,70,29.86,31.1,South,6.9,-,N/A,,Mostly Cloudy,170,2012-12-31 21:00:00
11:00 AM,84.2,75.2,74,29.86,31.1,NW,6.9,-,N/A,,Mostly Cloudy,310,2012-12-31 22:00:00
12:00 PM,86.0,77.0,74,29.83,31.1,West,8.1,-,N/A,,Mostly Cloudy,280,2012-12-31 23:00:00
1:00 PM,85,74,62,29.83,31,WNW,10.4,,,,Partly Cloudy,300,2013-01-01 00:00:00
1:00 PM,86.0,73.4,66,29.83,31.1,WNW,10.4,-,N/A,,Mostly Cloudy,300,2013-01-01 00:00:00
2:00 PM,86.0,75.2,70,29.80,31.1,West,13.8,-,N/A,,Mostly Cloudy,280,2013-01-01 01:00:00
3:00 PM,86.0,73.4,66,29.80,31.1,WNW,9.2,-,N/A,,Mostly Cloudy,300,2013-01-01 02:00:00
4:00 PM,85,75,66,29.80,31,WNW,9.2,,,,Partly Cloudy,300,2013-01-01 03:00:00
4:00 PM,84.2,75.2,74,29.80,31.1,WNW,10.4,-,N/A,,Mostly Cloudy,300,2013-01-01 03:00:00
5:00 PM,84.2,75.2,74,29.77,31.1,West,11.5,-,N/A,,Mostly Cloudy,280,2013-01-01 04:00:00
6:00 PM,84.2,77.0,79,29.80,24.9,WSW,5.8,-,N/A,,Mostly Cloudy,250,2013-01-01 05:00:00
7:00 PM,82,76,77,29.82,12,Calm,Calm,,,,Partly Cloudy,,2013-01-01 06:00:00
7:00 PM,82.4,75.2,79,29.80,18.6,Calm,Calm,-,N/A,,Mostly Cloudy,0,2013-01-01 06:00:00
8:00 PM,80.6,77.0,89,29.83,18.6,West,5.8,-,N/A,,Scattered Clouds,280,2013-01-01 07:00:00
9:00 PM,78.8,77.0,94,29.86,18.6,Calm,Calm,-,N/A,,Scattered Clouds,0,2013-01-01 08:00:00
10:00 PM,81,78,88,29.87,12,ENE,5.8,,,,Partly Cloudy,60,2013-01-01 09:00:00
10:00 PM,80.6,78.8,94,29.86,24.9,ENE,5.8,-,N/A,,Scattered Clouds,60,2013-01-01 09:00:00
11:00 PM,78.8,71.6,78,29.86,24.9,SE,5.8,-,N/A,,Mostly Cloudy,130,2013-01-01 10:00:00